Location: Brede
(50.9167°N, 0.6000°E)
Time: 16:19:01
(UTC+00:00)

Cosmos 2263 Rocket - Pass Details

Date: 08 August 2020
Orbit: 823 x 848 km, 71.0° (Epoch: 23 September)

Event Time Altitude Azimuth Distance (km) Brightness Sun altitude
Exits shadow 02:08:24 - 152° (SSE) 2,774 4.6 -17.7°
Reaches altitude 10° 02:09:40 10° 143° (SE) 2,423 4.4 -17.6°
Maximum altitude 02:13:25 19° 100° (E) 1,875 4.3 -17.2°
Drops below altitude 10° 02:17:12 10° 57° (ENE) 2,432 5.6 -16.9°
Sets 02:20:17 0° 40° (NE) 3,370 7.1 -16.6°
